Data supplied by UK-AIR on 25/3/2016
All Data GMT hour ending 
Status: R =Ratified P=Provisional,P*=As supplied
,,Wrexham,,,,,,,,,,,,,,,,,,,,,,,
Date,time,"Nitric oxide",status,unit,"Nitrogen dioxide",status,unit,"Nitrogen oxides as nitrogen dioxide",status,unit,"Sulphur dioxide",status,unit,"Daily measured PM<sub>10</sub> (uncorrected)",status,unit,"Daily measured PM<sub>2.5</sub> (uncorrected)",status,unit
 
01-01-2015,01:00,3.48329,R,ugm-3,6.51844,R,ugm-3,11.85941,R,ugm-3,4.60336,R,ugm-3,,,,,,
01-01-2015,02:00,2.34337,R,ugm-3,7.36313,R,ugm-3,10.95623,R,ugm-3,4.83308,R,ugm-3,,,,,,
01-01-2015,03:00,1.49832,R,ugm-3,4.35859,R,ugm-3,6.65598,R,ugm-3,4.77632,R,ugm-3,,,,,,
01-01-2015,04:00,1.61338,R,ugm-3,4.47716,R,ugm-3,6.95098,R,ugm-3,5.29519,R,ugm-3,,,,,,
01-01-2015,05:00,0.65327,R,ugm-3,3.94644,R,ugm-3,4.94812,R,ugm-3,5.40894,R,ugm-3,,,,,,
01-01-2015,06:00,0.69163,R,ugm-3,6.36193,R,ugm-3,7.42241,R,ugm-3,5.29386,R,ugm-3,,,,,,
01-01-2015,07:00,1.69009,R,ugm-3,9.07194,R,ugm-3,11.66338,R,ugm-3,5.46549,R,ugm-3,,,,,,
01-01-2015,08:00,1.26788,R,ugm-3,6.77408,R,ugm-3,8.71813,R,ugm-3,5.52403,R,ugm-3,,,,,,
01-01-2015,09:00,0.73029,R,ugm-3,4.41740,R,ugm-3,5.53717,R,ugm-3,5.52469,R,ugm-3,,,,,,
01-01-2015,10:00,0.96042,R,ugm-3,3.00406,R,ugm-3,4.47668,R,ugm-3,5.58124,R,ugm-3,,,,,,
01-01-2015,11:00,2.18964,R,ugm-3,5.42003,R,ugm-3,8.77742,R,ugm-3,5.98370,R,ugm-3,,,,,,
01-01-2015,12:00,1.80547,R,ugm-3,6.47955,R,ugm-3,9.24789,R,ugm-3,6.32962,R,ugm-3,,,,,,
01-01-2015,13:00,1.95951,R,ugm-3,6.12526,R,ugm-3,9.12980,R,ugm-3,6.38683,R,ugm-3,,,,,,
01-01-2015,14:00,2.49678,R,ugm-3,10.48576,R,ugm-3,14.31411,R,ugm-3,7.02079,R,ugm-3,,,,,,
01-01-2015,15:00,1.76711,R,ugm-3,6.65646,R,ugm-3,9.36599,R,ugm-3,7.53766,R,ugm-3,,,,,,
01-01-2015,16:00,1.99755,R,ugm-3,8.42361,R,ugm-3,11.48648,R,ugm-3,7.82504,R,ugm-3,,,,,,
01-01-2015,17:00,2.80424,R,ugm-3,8.65932,R,ugm-3,12.95910,R,ugm-3,8.22817,R,ugm-3,,,,,,
01-01-2015,18:00,2.38172,R,ugm-3,7.83456,R,ugm-3,11.48648,R,ugm-3,8.28604,R,ugm-3,,,,,,
01-01-2015,19:00,0.96011,R,ugm-3,3.18144,R,ugm-3,4.65359,R,ugm-3,8.22883,R,ugm-3,,,,,,
01-01-2015,20:00,1.11415,R,ugm-3,3.59311,R,ugm-3,5.30145,R,ugm-3,8.91934,R,ugm-3,,,,,,
01-01-2015,21:00,0.46119,R,ugm-3,2.41501,R,ugm-3,3.12216,R,ugm-3,8.86146,R,ugm-3,,,,,,
01-01-2015,22:00,0.26879,R,ugm-3,0.58953,R,ugm-3,1.00167,R,ugm-3,9.20605,R,ugm-3,,,,,,
01-01-2015,23:00,0.46119,R,ugm-3,0.35333,R,ugm-3,1.06048,R,ugm-3,8.63129,R,ugm-3,,,,,,
01-01-2015,24:00,0.11506,R,ugm-3,0.29405,R,ugm-3,0.47048,R,ugm-3,8.63129,R,ugm-3,,,,,,
02-01-2015,01:00,0.15342,R,ugm-3,0.00000,R,ugm-3,0.23524,R,ugm-3,7.45052,R,ugm-3,,,,,,
02-01-2015,02:00,0.26879,R,ugm-3,0.35238,R,ugm-3,0.76452,R,ugm-3,6.27972,R,ugm-3,,,,,,
02-01-2015,03:00,0.19177,R,ugm-3,0.29405,R,ugm-3,0.58809,R,ugm-3,5.29985,R,ugm-3,,,,,,
02-01-2015,04:00,0.23013,R,ugm-3,0.11762,R,ugm-3,0.47048,R,ugm-3,4.49360,R,ugm-3,,,,,,
02-01-2015,05:00,0.30684,R,ugm-3,0.29405,R,ugm-3,0.76452,R,ugm-3,4.03259,R,ugm-3,,,,,,
02-01-2015,06:00,0.42190,R,ugm-3,0.58809,R,ugm-3,1.23500,R,ugm-3,2.93830,R,ugm-3,,,,,,
02-01-2015,07:00,0.92144,R,ugm-3,2.05689,R,ugm-3,3.46975,R,ugm-3,1.72826,R,ugm-3,,,,,,
02-01-2015,08:00,1.11322,R,ugm-3,3.93879,R,ugm-3,5.64570,R,ugm-3,1.61317,R,ugm-3,,,,,,
02-01-2015,09:00,0.49892,R,ugm-3,2.58713,R,ugm-3,3.35213,R,ugm-3,1.21004,R,ugm-3,,,,,,
02-01-2015,10:00,0.80607,R,ugm-3,2.82189,R,ugm-3,4.05785,R,ugm-3,0.69117,R,ugm-3,,,,,,
02-01-2015,11:00,1.07517,R,ugm-3,4.11474,R,ugm-3,5.76332,R,ugm-3,0.80625,R,ugm-3,,,,,,
02-01-2015,12:00,2.84041,R,ugm-3,6.17164,R,ugm-3,10.52688,R,ugm-3,0.57609,R,ugm-3,,,,,,
02-01-2015,13:00,1.30530,R,ugm-3,4.82046,R,ugm-3,6.82189,R,ugm-3,1.03642,R,ugm-3,,,,,,
02-01-2015,14:00,1.53543,R,ugm-3,7.05521,R,ugm-3,9.40950,R,ugm-3,0.86413,R,ugm-3,,,,,,
02-01-2015,15:00,2.84041,R,ugm-3,9.81782,R,ugm-3,14.17306,R,ugm-3,0.80692,R,ugm-3,,,,,,
02-01-2015,16:00,5.45070,R,ugm-3,18.87112,R,ugm-3,27.22874,R,ugm-3,0.80692,R,ugm-3,,,,,,
02-01-2015,17:00,3.30129,R,ugm-3,12.11043,R,ugm-3,17.17234,R,ugm-3,0.57609,R,ugm-3,,,,,,
02-01-2015,18:00,5.37399,R,ugm-3,14.22518,R,ugm-3,22.46518,R,ugm-3,0.34592,R,ugm-3,,,,,,
02-01-2015,19:00,1.72751,R,ugm-3,5.29045,R,ugm-3,7.93927,R,ugm-3,0.46100,R,ugm-3,,,,,,
02-01-2015,20:00,1.49738,R,ugm-3,8.11330,R,ugm-3,10.40926,R,ugm-3,0.51888,R,ugm-3,,,,,,
02-01-2015,21:00,4.68299,R,ugm-3,18.51922,R,ugm-3,25.69970,R,ugm-3,0.92200,R,ugm-3,,,,,,
02-01-2015,22:00,2.57193,R,ugm-3,11.69972,R,ugm-3,15.64329,R,ugm-3,1.55596,R,ugm-3,,,,,,
02-01-2015,23:00,0.76803,R,ugm-3,4.70332,R,ugm-3,5.88094,R,ugm-3,1.90121,R,ugm-3,,,,,,
02-01-2015,24:00,0.88278,R,ugm-3,4.23332,R,ugm-3,5.58689,R,ugm-3,2.13138,R,ugm-3,,,,,,
03-01-2015,01:00,1.48304,R,ugm-3,4.61486,R,ugm-3,6.88883,R,ugm-3,2.46133,R,ugm-3,,,,,,
03-01-2015,02:00,0.76709,R,ugm-3,3.87329,R,ugm-3,5.04948,R,ugm-3,2.53783,R,ugm-3,,,,,,
03-01-2015,03:00,0.30684,R,ugm-3,1.05618,R,ugm-3,1.52665,R,ugm-3,2.59571,R,ugm-3,,,,,,
03-01-2015,04:00,0.49861,R,ugm-3,0.76261,R,ugm-3,1.52713,R,ugm-3,3.05671,R,ugm-3,,,,,,
03-01-2015,05:00,0.92051,R,ugm-3,2.46330,R,ugm-3,3.87473,R,ugm-3,3.40263,R,ugm-3,,,,,,
03-01-2015,06:00,3.64368,R,ugm-3,10.26630,R,ugm-3,15.85319,R,ugm-3,3.57558,R,ugm-3,,,,,,
03-01-2015,07:00,5.13950,R,ugm-3,11.61270,R,ugm-3,19.49316,R,ugm-3,3.45984,R,ugm-3,,,,,,
03-01-2015,08:00,14.49799,R,ugm-3,26.38485,R,ugm-3,48.61479,R,ugm-3,3.97938,R,ugm-3,,,,,,
03-01-2015,09:00,25.35231,R,ugm-3,36.69179,R,ugm-3,75.56479,R,ugm-3,4.49892,R,ugm-3,,,,,,
03-01-2015,10:00,36.74359,R,ugm-3,47.93633,R,ugm-3,104.27572,R,ugm-3,5.53667,R,ugm-3,,,,,,
03-01-2015,11:00,46.63904,R,ugm-3,56.54306,R,ugm-3,128.05526,R,ugm-3,5.99833,R,ugm-3,,,,,,
03-01-2015,12:00,54.92361,R,ugm-3,61.80626,R,ugm-3,146.02129,R,ugm-3,5.71029,R,ugm-3,,,,,,
03-01-2015,13:00,30.06991,R,ugm-3,48.07021,R,ugm-3,94.17676,R,ugm-3,6.22850,R,ugm-3,,,,,,
03-01-2015,14:00,22.01547,R,ugm-3,39.69394,R,ugm-3,73.45052,R,ugm-3,5.36371,R,ugm-3,,,,,,
03-01-2015,15:00,9.28178,R,ugm-3,34.85244,R,ugm-3,49.08431,R,ugm-3,4.67188,R,ugm-3,,,,,,
03-01-2015,16:00,56.18931,R,ugm-3,58.74961,R,ugm-3,144.90534,R,ugm-3,4.21087,R,ugm-3,,,,,,
03-01-2015,17:00,62.97805,R,ugm-3,70.59324,R,ugm-3,167.15824,R,ugm-3,6.28704,R,ugm-3,,,,,,
03-01-2015,18:00,3.06836,R,ugm-3,25.41521,R,ugm-3,30.11996,R,ugm-3,2.99883,R,ugm-3,,,,,,
03-01-2015,19:00,9.47356,R,ugm-3,38.49241,R,ugm-3,53.01833,R,ugm-3,2.47929,R,ugm-3,,,,,,
03-01-2015,20:00,2.99165,R,ugm-3,19.36789,R,ugm-3,23.95502,R,ugm-3,1.67304,R,ugm-3,,,,,,
03-01-2015,21:00,13.76926,R,ugm-3,28.67698,R,ugm-3,49.78955,R,ugm-3,0.98054,R,ugm-3,,,,,,
03-01-2015,22:00,12.69533,R,ugm-3,33.31766,R,ugm-3,52.78357,R,ugm-3,1.38433,R,ugm-3,,,,,,
03-01-2015,23:00,12.96381,R,ugm-3,39.54142,R,ugm-3,59.41898,R,ugm-3,0.92333,R,ugm-3,,,,,,
03-01-2015,24:00,9.43520,R,ugm-3,41.25215,R,ugm-3,55.71925,R,ugm-3,0.63463,R,ugm-3,,,,,,
04-01-2015,01:00,3.73317,R,ugm-3,28.35281,R,ugm-3,34.07693,R,ugm-3,2.84894,R,ugm-3,,,,,,
04-01-2015,02:00,2.14785,R,ugm-3,14.52687,R,ugm-3,17.82020,R,ugm-3,1.38566,R,ugm-3,,,,,,
04-01-2015,03:00,1.76431,R,ugm-3,14.93902,R,ugm-3,17.64425,R,ugm-3,1.21271,R,ugm-3,,,,,,
04-01-2015,04:00,1.53418,R,ugm-3,16.63971,R,ugm-3,18.99208,R,ugm-3,0.92333,R,ugm-3,,,,,,
04-01-2015,05:00,1.49583,R,ugm-3,17.22637,R,ugm-3,19.51993,R,ugm-3,1.50208,R,ugm-3,,,,,,
04-01-2015,06:00,2.30127,R,ugm-3,22.38055,R,ugm-3,25.90912,R,ugm-3,0.86612,R,ugm-3,,,,,,
04-01-2015,07:00,7.17229,R,ugm-3,27.04562,R,ugm-3,38.04297,R,ugm-3,0.75037,R,ugm-3,,,,,,
04-01-2015,08:00,10.70090,R,ugm-3,33.12450,R,ugm-3,49.53232,R,ugm-3,0.69250,R,ugm-3,,,,,,
04-01-2015,09:00,38.23941,R,ugm-3,41.78000,R,ugm-3,100.41294,R,ugm-3,0.52021,R,ugm-3,,,,,,
04-01-2015,10:00,40.73245,R,ugm-3,40.12616,R,ugm-3,102.58172,R,ugm-3,1.79012,R,ugm-3,,,,,,
04-01-2015,11:00,49.89917,R,ugm-3,49.28369,R,ugm-3,125.79469,R,ugm-3,2.88708,R,ugm-3,,,,,,
04-01-2015,12:00,41.11600,R,ugm-3,39.01022,R,ugm-3,102.05387,R,ugm-3,3.11791,R,ugm-3,,,,,,
04-01-2015,13:00,24.31674,R,ugm-3,27.72217,R,ugm-3,65.00731,R,ugm-3,3.06004,R,ugm-3,,,,,,
04-01-2015,14:00,22.20724,R,ugm-3,30.25384,R,ugm-3,64.30447,R,ugm-3,2.71412,R,ugm-3,,,,,,
04-01-2015,15:00,23.28117,R,ugm-3,26.20364,R,ugm-3,61.90093,R,ugm-3,3.06004,R,ugm-3,,,,,,
04-01-2015,16:00,20.97990,R,ugm-3,29.67339,R,ugm-3,61.84212,R,ugm-3,3.00283,R,ugm-3,,,,,,
04-01-2015,17:00,21.28673,R,ugm-3,27.56152,R,ugm-3,60.20072,R,ugm-3,1.90520,R,ugm-3,,,,,,
04-01-2015,18:00,28.99598,R,ugm-3,41.76757,R,ugm-3,86.22745,R,ugm-3,3.23299,R,ugm-3,,,,,,
04-01-2015,19:00,19.52243,R,ugm-3,39.11780,R,ugm-3,69.05177,R,ugm-3,3.81107,R,ugm-3,,,,,,
04-01-2015,20:00,18.06496,R,ugm-3,45.04559,R,ugm-3,72.74481,R,ugm-3,3.40728,R,ugm-3,,,,,,
04-01-2015,21:00,23.54965,R,ugm-3,42.96718,R,ugm-3,79.07614,R,ugm-3,3.75387,R,ugm-3,,,,,,
04-01-2015,22:00,10.73925,R,ugm-3,31.89333,R,ugm-3,48.35995,R,ugm-3,3.75320,R,ugm-3,,,,,,
04-01-2015,23:00,9.93381,R,ugm-3,29.02506,R,ugm-3,44.25668,R,ugm-3,3.69533,R,ugm-3,,,,,,
04-01-2015,24:00,2.49304,R,ugm-3,22.90745,R,ugm-3,26.73006,R,ugm-3,4.56145,R,ugm-3,,,,,,
05-01-2015,01:00,1.48179,R,ugm-3,22.30740,R,ugm-3,24.57945,R,ugm-3,1.77039,R,ugm-3,,,,,,
05-01-2015,02:00,13.48986,R,ugm-3,26.71906,R,ugm-3,47.40323,R,ugm-3,2.19391,R,ugm-3,,,,,,
05-01-2015,03:00,10.19387,R,ugm-3,25.86178,R,ugm-3,41.49217,R,ugm-3,1.73158,R,ugm-3,,,,,,
05-01-2015,04:00,5.48032,R,ugm-3,18.45849,R,ugm-3,26.86154,R,ugm-3,1.96308,R,ugm-3,,,,,,
05-01-2015,05:00,11.42059,R,ugm-3,22.34230,R,ugm-3,39.85363,R,ugm-3,1.61650,R,ugm-3,,,,,,
05-01-2015,06:00,17.74378,R,ugm-3,32.95429,R,ugm-3,60.16103,R,ugm-3,2.25179,R,ugm-3,,,,,,
05-01-2015,07:00,69.48022,R,ugm-3,53.28990,R,ugm-3,159.82476,R,ugm-3,3.23299,R,ugm-3,,,,,,
05-01-2015,08:00,127.04187,R,ugm-3,82.54350,R,ugm-3,277.33832,R,ugm-3,5.36970,R,ugm-3,,,,,,
05-01-2015,09:00,253.27861,R,ugm-3,107.62307,R,ugm-3,495.97819,R,ugm-3,8.83419,R,ugm-3,,,,,,
05-01-2015,10:00,232.81385,R,ugm-3,100.25994,R,ugm-3,457.23620,R,ugm-3,10.33627,R,ugm-3,,,,,,
05-01-2015,11:00,169.15883,R,ugm-3,77.01398,R,ugm-3,336.38723,R,ugm-3,12.24081,R,ugm-3,,,,,,
05-01-2015,12:00,,,,,,,,,,3.38733,R,ugm-3,,,,,,
05-01-2015,13:00,,,,,,,,,,,,,,,,,,
05-01-2015,14:00,,,,,,,,,,,,,,,,,,
05-01-2015,15:00,,,,,,,,,,,,,,,,,,
05-01-2015,16:00,23.56867,R,ugm-3,37.54190,R,ugm-3,73.68002,R,ugm-3,5.48545,R,ugm-3,,,,,,
05-01-2015,17:00,29.16375,R,ugm-3,44.64683,R,ugm-3,89.36395,R,ugm-3,6.87177,R,ugm-3,,,,,,
05-01-2015,18:00,23.14708,R,ugm-3,47.37645,R,ugm-3,82.86815,R,ugm-3,6.75603,R,ugm-3,,,,,,
05-01-2015,19:00,24.06697,R,ugm-3,44.79553,R,ugm-3,81.69770,R,ugm-3,7.44852,R,ugm-3,,,,,,
05-01-2015,20:00,11.72680,R,ugm-3,28.60335,R,ugm-3,46.58420,R,ugm-3,6.23582,R,ugm-3,,,,,,
05-01-2015,21:00,8.77600,R,ugm-3,20.42837,R,ugm-3,33.88472,R,ugm-3,6.58174,R,ugm-3,,,,,,
05-01-2015,22:00,7.28143,R,ugm-3,16.57420,R,ugm-3,27.73890,R,ugm-3,7.10261,R,ugm-3,,,,,,
05-01-2015,23:00,4.67550,R,ugm-3,12.90412,R,ugm-3,20.07312,R,ugm-3,6.92832,R,ugm-3,,,,,,
05-01-2015,24:00,1.41818,R,ugm-3,9.58880,R,ugm-3,11.76331,R,ugm-3,6.98686,R,ugm-3,,,,,,
06-01-2015,01:00,0.71470,R,ugm-3,9.83726,R,ugm-3,10.93313,R,ugm-3,7.78579,R,ugm-3,,,,,,
06-01-2015,02:00,1.07205,R,ugm-3,9.01553,R,ugm-3,10.65932,R,ugm-3,7.34209,R,ugm-3,,,,,,
06-01-2015,03:00,0.80420,R,ugm-3,6.32225,R,ugm-3,7.55533,R,ugm-3,7.92083,R,ugm-3,,,,,,
06-01-2015,04:00,0.53603,R,ugm-3,4.44991,R,ugm-3,5.27181,R,ugm-3,8.09379,R,ugm-3,,,,,,
06-01-2015,05:00,1.18743,R,ugm-3,4.91465,R,ugm-3,6.73535,R,ugm-3,7.86229,R,ugm-3,,,,,,
06-01-2015,06:00,3.17843,R,ugm-3,8.24622,R,ugm-3,13.11975,R,ugm-3,8.38250,R,ugm-3,,,,,,
06-01-2015,07:00,13.63174,R,ugm-3,24.31457,R,ugm-3,45.21628,R,ugm-3,8.49692,R,ugm-3,,,,,,
06-01-2015,08:00,23.24312,R,ugm-3,31.19001,R,ugm-3,66.82897,R,ugm-3,8.55546,R,ugm-3,,,,,,
06-01-2015,09:00,3.67611,R,ugm-3,21.94976,R,ugm-3,27.58638,R,ugm-3,7.68867,R,ugm-3,,,,,,
06-01-2015,10:00,1.45498,R,ugm-3,12.58808,R,ugm-3,14.81901,R,ugm-3,6.35822,R,ugm-3,,,,,,
06-01-2015,11:00,3.67611,R,ugm-3,12.98922,R,ugm-3,18.62584,R,ugm-3,5.78014,R,ugm-3,,,,,,
06-01-2015,12:00,1.99131,R,ugm-3,9.48026,R,ugm-3,12.53357,R,ugm-3,5.66506,R,ugm-3,,,,,,
06-01-2015,13:00,4.74816,R,ugm-3,10.11473,R,ugm-3,17.39514,R,ugm-3,5.83868,R,ugm-3,,,,,,
06-01-2015,14:00,1.91429,R,ugm-3,10.30120,R,ugm-3,13.23641,R,ugm-3,5.83802,R,ugm-3,,,,,,
06-01-2015,15:00,4.09707,R,ugm-3,17.84888,R,ugm-3,24.13097,R,ugm-3,6.30035,R,ugm-3,,,,,,
06-01-2015,16:00,5.89692,R,ugm-3,20.47809,R,ugm-3,29.51992,R,ugm-3,5.49143,R,ugm-3,,,,,,
06-01-2015,17:00,5.13139,R,ugm-3,28.73866,R,ugm-3,36.60668,R,ugm-3,4.74039,R,ugm-3,,,,,,
06-01-2015,18:00,34.69271,R,ugm-3,71.73548,R,ugm-3,124.93024,R,ugm-3,5.72293,R,ugm-3,,,,,,
06-01-2015,19:00,53.60895,R,ugm-3,72.60233,R,ugm-3,154.80158,R,ugm-3,6.30101,R,ugm-3,,,,,,
06-01-2015,20:00,23.28148,R,ugm-3,47.12065,R,ugm-3,82.81842,R,ugm-3,4.74039,R,ugm-3,,,,,,
06-01-2015,21:00,15.62306,R,ugm-3,36.60668,R,ugm-3,60.56170,R,ugm-3,4.27740,R,ugm-3,,,,,,
06-01-2015,22:00,9.19011,R,ugm-3,29.25121,R,ugm-3,43.34251,R,ugm-3,3.98802,R,ugm-3,,,,,,
06-01-2015,23:00,2.45063,R,ugm-3,14.69278,R,ugm-3,18.45037,R,ugm-3,3.69998,R,ugm-3,,,,,,
06-01-2015,24:00,3.44629,R,ugm-3,15.15656,R,ugm-3,20.44080,R,ugm-3,3.75786,R,ugm-3,,,,,,
07-01-2015,01:00,4.08117,R,ugm-3,11.87535,R,ugm-3,18.13305,R,ugm-3,3.70397,R,ugm-3,,,,,,
07-01-2015,02:00,1.10979,R,ugm-3,5.50848,R,ugm-3,7.21013,R,ugm-3,3.18310,R,ugm-3,,,,,,
07-01-2015,03:00,0.53572,R,ugm-3,4.45469,R,ugm-3,5.27611,R,ugm-3,3.35673,R,ugm-3,,,,,,
07-01-2015,04:00,3.02283,R,ugm-3,7.85081,R,ugm-3,12.48576,R,ugm-3,3.53035,R,ugm-3,,,,,,
07-01-2015,05:00,1.07143,R,ugm-3,3.45684,R,ugm-3,5.09968,R,ugm-3,3.64610,R,ugm-3,,,,,,
07-01-2015,06:00,3.13758,R,ugm-3,8.78842,R,ugm-3,13.59931,R,ugm-3,4.10910,R,ugm-3,,,,,,
07-01-2015,07:00,4.59131,R,ugm-3,9.49078,R,ugm-3,16.53069,R,ugm-3,4.39847,R,ugm-3,,,,,,
07-01-2015,08:00,24.83156,R,ugm-3,22.71237,R,ugm-3,60.78690,R,ugm-3,5.32446,R,ugm-3,,,,,,
07-01-2015,09:00,21.77069,R,ugm-3,38.54309,R,ugm-3,71.92434,R,ugm-3,6.19258,R,ugm-3,,,,,,
07-01-2015,10:00,5.16538,R,ugm-3,12.01002,R,ugm-3,19.93016,R,ugm-3,5.96108,R,ugm-3,,,,,,
07-01-2015,11:00,4.97392,R,ugm-3,11.24837,R,ugm-3,18.87494,R,ugm-3,6.36620,R,ugm-3,,,,,,
07-01-2015,12:00,10.52222,R,ugm-3,17.33681,R,ugm-3,33.47066,R,ugm-3,6.82920,R,ugm-3,,,,,,
07-01-2015,13:00,9.56523,R,ugm-3,19.27370,R,ugm-3,33.94018,R,ugm-3,7.63944,R,ugm-3,,,,,,
07-01-2015,14:00,4.32314,R,ugm-3,7.61510,R,ugm-3,14.24382,R,ugm-3,8.10244,R,ugm-3,,,,,,
07-01-2015,15:00,1.98944,R,ugm-3,6.21132,R,ugm-3,9.26176,R,ugm-3,8.91269,R,ugm-3,,,,,,
07-01-2015,16:00,19.05407,R,ugm-3,33.79866,R,ugm-3,63.01448,R,ugm-3,9.37568,R,ugm-3,,,,,,
07-01-2015,17:00,11.66912,R,ugm-3,23.90195,R,ugm-3,41.79434,R,ugm-3,8.68119,R,ugm-3,,,,,,
07-01-2015,18:00,16.60499,R,ugm-3,24.89214,R,ugm-3,50.35278,R,ugm-3,8.91269,R,ugm-3,,,,,,
07-01-2015,19:00,8.87672,R,ugm-3,17.33968,R,ugm-3,30.95047,R,ugm-3,9.60718,R,ugm-3,,,,,,
07-01-2015,20:00,4.01724,R,ugm-3,11.66003,R,ugm-3,17.81972,R,ugm-3,9.49143,R,ugm-3,,,,,,
07-01-2015,21:00,1.49208,R,ugm-3,5.86038,R,ugm-3,8.14821,R,ugm-3,9.66505,R,ugm-3,,,,,,
07-01-2015,22:00,1.41569,R,ugm-3,5.85990,R,ugm-3,8.03059,R,ugm-3,9.72293,R,ugm-3,,,,,,
07-01-2015,23:00,0.42065,R,ugm-3,0.87927,R,ugm-3,1.52426,R,ugm-3,9.25993,R,ugm-3,,,,,,
07-01-2015,24:00,0.34426,R,ugm-3,1.05427,R,ugm-3,1.58212,R,ugm-3,9.08631,R,ugm-3,,,,,,
08-01-2015,01:00,0.25487,R,ugm-3,1.09650,R,ugm-3,1.48729,R,ugm-3,9.11624,R,ugm-3,,,,,,
08-01-2015,02:00,0.64984,R,ugm-3,3.52474,R,ugm-3,4.52115,R,ugm-3,8.65325,R,ugm-3,,,,,,
08-01-2015,03:00,0.15311,R,ugm-3,1.11594,R,ugm-3,1.35070,R,ugm-3,8.16963,R,ugm-3,,,,,,
08-01-2015,04:00,0.26786,R,ugm-3,1.35070,R,ugm-3,1.76141,R,ugm-3,7.76318,R,ugm-3,,,,,,
08-01-2015,05:00,0.45870,R,ugm-3,1.23452,R,ugm-3,1.93784,R,ugm-3,7.41593,R,ugm-3,,,,,,
08-01-2015,06:00,0.68789,R,ugm-3,4.58139,R,ugm-3,5.63614,R,ugm-3,7.64743,R,ugm-3,,,,,,
08-01-2015,07:00,3.05838,R,ugm-3,24.49148,R,ugm-3,29.18093,R,ugm-3,7.47380,R,ugm-3,,,,,,
08-01-2015,08:00,18.23553,R,ugm-3,37.68151,R,ugm-3,65.64226,R,ugm-3,7.70597,R,ugm-3,,,,,,
08-01-2015,09:00,35.97432,R,ugm-3,54.86915,R,ugm-3,110.02899,R,ugm-3,7.59022,R,ugm-3,,,,,,
08-01-2015,10:00,52.71838,R,ugm-3,53.79671,R,ugm-3,134.63044,R,ugm-3,8.11175,R,ugm-3,,,,,,
08-01-2015,11:00,28.55756,R,ugm-3,44.04822,R,ugm-3,87.83587,R,ugm-3,7.47447,R,ugm-3,,,,,,
08-01-2015,12:00,1.14689,R,ugm-3,3.23213,R,ugm-3,4.99067,R,ugm-3,5.44620,R,ugm-3,,,,,,
08-01-2015,13:00,1.75838,R,ugm-3,8.45947,R,ugm-3,11.15561,R,ugm-3,5.62049,R,ugm-3,,,,,,
08-01-2015,14:00,2.14099,R,ugm-3,9.34065,R,ugm-3,12.62346,R,ugm-3,5.56261,R,ugm-3,,,,,,
08-01-2015,15:00,2.48493,R,ugm-3,5.58402,R,ugm-3,9.39420,R,ugm-3,5.38832,R,ugm-3,,,,,,
08-01-2015,16:00,4.28167,R,ugm-3,11.10780,R,ugm-3,17.67293,R,ugm-3,4.75104,R,ugm-3,,,,,,
08-01-2015,17:00,24.35197,R,ugm-3,34.87826,R,ugm-3,72.21743,R,ugm-3,5.15682,R,ugm-3,,,,,,
08-01-2015,18:00,22.05850,R,ugm-3,39.56963,R,ugm-3,73.39219,R,ugm-3,5.27257,R,ugm-3,,,,,,
08-01-2015,19:00,26.41657,R,ugm-3,41.28323,R,ugm-3,81.78806,R,ugm-3,5.38832,R,ugm-3,,,,,,
08-01-2015,20:00,5.92592,R,ugm-3,12.40304,R,ugm-3,21.48933,R,ugm-3,4.46166,R,ugm-3,,,,,,
08-01-2015,21:00,1.37640,R,ugm-3,3.87807,R,ugm-3,5.98852,R,ugm-3,5.04041,R,ugm-3,,,,,,
08-01-2015,22:00,1.14689,R,ugm-3,4.69997,R,ugm-3,6.45851,R,ugm-3,5.44620,R,ugm-3,,,,,,
08-01-2015,23:00,0.76460,R,ugm-3,1.99808,R,ugm-3,3.17045,R,ugm-3,6.08481,R,ugm-3,,,,,,
08-01-2015,24:00,0.45870,R,ugm-3,0.52976,R,ugm-3,1.23308,R,ugm-3,6.89506,R,ugm-3,,,,,,
09-01-2015,01:00,0.40787,R,ugm-3,0.47175,R,ugm-3,1.09714,R,ugm-3,7.33876,R,ugm-3,,,,,,
09-01-2015,02:00,0.34426,R,ugm-3,0.17738,R,ugm-3,0.70523,R,ugm-3,8.40179,R,ugm-3,,,,,,
09-01-2015,03:00,0.07671,R,ugm-3,0.29405,R,ugm-3,0.41167,R,ugm-3,8.51821,R,ugm-3,,,,,,
09-01-2015,04:00,0.15342,R,ugm-3,0.35286,R,ugm-3,0.58809,R,ugm-3,8.22750,R,ugm-3,,,,,,
09-01-2015,05:00,0.30559,R,ugm-3,0.64786,R,ugm-3,1.11642,R,ugm-3,7.82105,R,ugm-3,,,,,,
09-01-2015,06:00,0.45870,R,ugm-3,0.82381,R,ugm-3,1.52713,R,ugm-3,7.47380,R,ugm-3,,,,,,
09-01-2015,07:00,1.37640,R,ugm-3,3.35405,R,ugm-3,5.46449,R,ugm-3,6.89506,R,ugm-3,,,,,,
09-01-2015,08:00,0.72624,R,ugm-3,2.41214,R,ugm-3,3.52569,R,ugm-3,6.25844,R,ugm-3,,,,,,
09-01-2015,09:00,0.72655,R,ugm-3,3.17571,R,ugm-3,4.28974,R,ugm-3,6.54781,R,ugm-3,,,,,,
09-01-2015,10:00,0.80295,R,ugm-3,2.82333,R,ugm-3,4.05450,R,ugm-3,6.14269,R,ugm-3,,,,,,
09-01-2015,11:00,1.52919,R,ugm-3,4.47143,R,ugm-3,6.81615,R,ugm-3,6.31631,R,ugm-3,,,,,,
09-01-2015,12:00,0.95543,R,ugm-3,3.58785,R,ugm-3,5.05283,R,ugm-3,6.66356,R,ugm-3,,,,,,
09-01-2015,13:00,11.69843,R,ugm-3,14.08795,R,ugm-3,32.02529,R,ugm-3,7.47447,R,ugm-3,,,,,,
09-01-2015,14:00,5.46660,R,ugm-3,16.70903,R,ugm-3,25.09104,R,ugm-3,9.32845,R,ugm-3,,,,,,
09-01-2015,15:00,1.22360,R,ugm-3,4.17642,R,ugm-3,6.05258,R,ugm-3,9.79145,R,ugm-3,,,,,,
09-01-2015,16:00,2.67608,R,ugm-3,3.12455,R,ugm-3,7.22782,R,ugm-3,10.19790,R,ugm-3,,,,,,
09-01-2015,17:00,1.03245,R,ugm-3,2.29500,R,ugm-3,3.87807,R,ugm-3,10.19723,R,ugm-3,,,,,,
09-01-2015,18:00,0.64984,R,ugm-3,1.41286,R,ugm-3,2.40927,R,ugm-3,9.67570,R,ugm-3,,,,,,
09-01-2015,19:00,0.53509,R,ugm-3,1.82309,R,ugm-3,2.64355,R,ugm-3,10.37219,R,ugm-3,,,,,,
09-01-2015,20:00,0.99410,R,ugm-3,1.41334,R,ugm-3,2.93760,R,ugm-3,10.25511,R,ugm-3,,,,,,
09-01-2015,21:00,0.38230,R,ugm-3,0.70619,R,ugm-3,1.29237,R,ugm-3,10.19723,R,ugm-3,,,,,,
09-01-2015,22:00,0.49674,R,ugm-3,0.88310,R,ugm-3,1.64475,R,ugm-3,9.84999,R,ugm-3,,,,,,
09-01-2015,23:00,0.30559,R,ugm-3,0.41358,R,ugm-3,0.88214,R,ugm-3,9.90720,R,ugm-3,,,,,,
09-01-2015,24:00,0.19146,R,ugm-3,0.35333,R,ugm-3,0.64690,R,ugm-3,10.42940,R,ugm-3,,,,,,
10-01-2015,01:00,0.30559,R,ugm-3,0.55080,R,ugm-3,1.01936,R,ugm-3,10.20987,R,ugm-3,,,,,,
10-01-2015,02:00,,,,,,,,,,11.31149,R,ugm-3,,,,,,
10-01-2015,03:00,0.03804,R,ugm-3,0.35333,R,ugm-3,0.41167,R,ugm-3,11.07999,R,ugm-3,,,,,,
10-01-2015,04:00,0.03804,R,ugm-3,0.17691,R,ugm-3,0.23524,R,ugm-3,11.54365,R,ugm-3,,,,,,
10-01-2015,05:00,0.22888,R,ugm-3,0.23715,R,ugm-3,0.58809,R,ugm-3,12.24014,R,ugm-3,,,,,,
10-01-2015,06:00,0.19084,R,ugm-3,0.41310,R,ugm-3,0.70571,R,ugm-3,12.41376,R,ugm-3,,,,,,
10-01-2015,07:00,0.38230,R,ugm-3,0.64882,R,ugm-3,1.23500,R,ugm-3,12.00731,R,ugm-3,,,,,,
10-01-2015,08:00,0.38230,R,ugm-3,1.41334,R,ugm-3,1.99952,R,ugm-3,11.31149,R,ugm-3,,,,,,
10-01-2015,09:00,0.49674,R,ugm-3,2.35524,R,ugm-3,3.11690,R,ugm-3,9.68701,R,ugm-3,,,,,,
10-01-2015,10:00,0.91677,R,ugm-3,3.71073,R,ugm-3,5.11642,R,ugm-3,8.46898,R,ugm-3,,,,,,
10-01-2015,11:00,0.91677,R,ugm-3,3.65192,R,ugm-3,5.05761,R,ugm-3,7.59887,R,ugm-3,,,,,,
10-01-2015,12:00,1.22267,R,ugm-3,3.59454,R,ugm-3,5.46927,R,ugm-3,6.20721,R,ugm-3,,,,,,
10-01-2015,13:00,1.22267,R,ugm-3,4.41788,R,ugm-3,6.29260,R,ugm-3,6.14868,R,ugm-3,,,,,,
10-01-2015,14:00,1.33679,R,ugm-3,4.24288,R,ugm-3,6.29260,R,ugm-3,5.74289,R,ugm-3,,,,,,
10-01-2015,15:00,1.26071,R,ugm-3,4.18312,R,ugm-3,6.11618,R,ugm-3,5.80143,R,ugm-3,,,,,,
10-01-2015,16:00,1.06956,R,ugm-3,6.24049,R,ugm-3,7.88046,R,ugm-3,5.39498,R,ugm-3,,,,,,
10-01-2015,17:00,1.33711,R,ugm-3,6.12430,R,ugm-3,8.17450,R,ugm-3,4.69915,R,ugm-3,,,,,,
10-01-2015,18:00,22.38436,R,ugm-3,36.30786,R,ugm-3,70.63006,R,ugm-3,5.04640,R,ugm-3,,,,,,
10-01-2015,19:00,9.47356,R,ugm-3,24.58232,R,ugm-3,39.10823,R,ugm-3,5.45218,R,ugm-3,,,,,,
10-01-2015,20:00,1.56567,R,ugm-3,4.89170,R,ugm-3,7.29236,R,ugm-3,4.46699,R,ugm-3,,,,,,
10-01-2015,21:00,0.80170,R,ugm-3,2.41692,R,ugm-3,3.64618,R,ugm-3,4.29270,R,ugm-3,,,,,,
10-01-2015,22:00,0.64922,R,ugm-3,1.59216,R,ugm-3,2.58761,R,ugm-3,4.29270,R,ugm-3,,,,,,
10-01-2015,23:00,0.53509,R,ugm-3,1.17906,R,ugm-3,1.99952,R,ugm-3,4.75702,R,ugm-3,,,,,,
10-01-2015,24:00,0.49674,R,ugm-3,0.94382,R,ugm-3,1.70547,R,ugm-3,4.58207,R,ugm-3,,,,,,
11-01-2015,01:00,0.50890,R,ugm-3,0.31875,R,ugm-3,1.09905,R,ugm-3,4.49071,R,ugm-3,,,,,,
11-01-2015,02:00,0.72531,R,ugm-3,0.35907,R,ugm-3,1.47119,R,ugm-3,4.70381,R,ugm-3,,,,,,
11-01-2015,03:00,0.26723,R,ugm-3,0.53215,R,ugm-3,0.94191,R,ugm-3,4.41310,R,ugm-3,,,,,,
11-01-2015,04:00,0.41972,R,ugm-3,0.41597,R,ugm-3,1.05953,R,ugm-3,4.47164,R,ugm-3,,,,,,
11-01-2015,05:00,0.38199,R,ugm-3,0.29692,R,ugm-3,0.88262,R,ugm-3,3.71728,R,ugm-3,,,,,,
11-01-2015,06:00,0.30559,R,ugm-3,0.64977,R,ugm-3,1.11833,R,ugm-3,4.00665,R,ugm-3,,,,,,
11-01-2015,07:00,0.38167,R,ugm-3,0.76930,R,ugm-3,1.35453,R,ugm-3,3.31016,R,ugm-3,,,,,,
11-01-2015,08:00,0.34363,R,ugm-3,0.94525,R,ugm-3,1.47215,R,ugm-3,2.90437,R,ugm-3,,,,,,
11-01-2015,09:00,0.38199,R,ugm-3,0.70906,R,ugm-3,1.29476,R,ugm-3,3.19441,R,ugm-3,,,,,,
11-01-2015,10:00,0.45838,R,ugm-3,1.18097,R,ugm-3,1.88381,R,ugm-3,3.02012,R,ugm-3,,,,,,
11-01-2015,11:00,0.53416,R,ugm-3,0.77074,R,ugm-3,1.58977,R,ugm-3,3.36870,R,ugm-3,,,,,,
11-01-2015,12:00,0.57220,R,ugm-3,1.94836,R,ugm-3,2.82572,R,ugm-3,3.60153,R,ugm-3,,,,,,
11-01-2015,13:00,0.91614,R,ugm-3,1.95027,R,ugm-3,3.35500,R,ugm-3,3.36870,R,ugm-3,,,,,,
11-01-2015,14:00,0.68726,R,ugm-3,1.41812,R,ugm-3,2.47191,R,ugm-3,4.18160,R,ugm-3,,,,,,
11-01-2015,15:00,0.91552,R,ugm-3,1.47980,R,ugm-3,2.88357,R,ugm-3,4.35589,R,ugm-3,,,,,,
11-01-2015,16:00,0.68695,R,ugm-3,1.65383,R,ugm-3,2.70714,R,ugm-3,4.41377,R,ugm-3,,,,,,
11-01-2015,17:00,0.64922,R,ugm-3,2.24097,R,ugm-3,3.23643,R,ugm-3,4.93597,R,ugm-3,,,,,,
11-01-2015,18:00,0.91583,R,ugm-3,3.00980,R,ugm-3,4.41405,R,ugm-3,5.05238,R,ugm-3,,,,,,
11-01-2015,19:00,0.95419,R,ugm-3,2.65694,R,ugm-3,4.12000,R,ugm-3,5.45884,R,ugm-3,,,,,,
11-01-2015,20:00,0.57282,R,ugm-3,1.18193,R,ugm-3,2.06024,R,ugm-3,5.57525,R,ugm-3,,,,,,
11-01-2015,21:00,0.38167,R,ugm-3,0.82811,R,ugm-3,1.41334,R,ugm-3,6.15599,R,ugm-3,,,,,,
11-01-2015,22:00,0.64891,R,ugm-3,1.94788,R,ugm-3,2.94286,R,ugm-3,6.62098,R,ugm-3,,,,,,
11-01-2015,23:00,0.64922,R,ugm-3,1.24121,R,ugm-3,2.23667,R,ugm-3,6.96890,R,ugm-3,,,,,,
11-01-2015,24:00,0.41972,R,ugm-3,0.65216,R,ugm-3,1.29572,R,ugm-3,7.20106,R,ugm-3,,,,,,
12-01-2015,01:00,0.30559,R,ugm-3,0.23843,R,ugm-3,0.70699,R,ugm-3,7.83014,R,ugm-3,,,,,,
12-01-2015,02:00,0.41941,R,ugm-3,0.24050,R,ugm-3,0.88358,R,ugm-3,8.54615,R,ugm-3,,,,,,
12-01-2015,03:00,0.15259,R,ugm-3,0.00128,R,ugm-3,0.23524,R,ugm-3,9.47680,R,ugm-3,,,,,,
12-01-2015,04:00,0.22888,R,ugm-3,0.00191,R,ugm-3,0.35286,R,ugm-3,9.36038,R,ugm-3,,,,,,
12-01-2015,05:00,0.26723,R,ugm-3,0.23858,R,ugm-3,0.64834,R,ugm-3,9.82604,R,ugm-3,,,,,,